Location: Auttagershofen
(48.1940°N, 10.0237°E)
Time: 02:04:54
(UTC+00:00)

SO-50 - Visible Passes

Search period start: 10 May 2026 00:00
Search period end: 20 May 2026 00:00
Orbit: 567 x 673 km, 64.6° (Epoch: 9 May)

Date Brightness Start Highest point End Pass type
(mag) Time Alt. Az. Time Alt. Az. Time Alt. Az.
10 May ? 01:29:56 16° SSE 01:32:27 25° ESE 01:36:19 10° ENE visible
10 May ? 03:07:28 10° SW 03:12:06 56° NW 03:16:51 10° NNE visible
11 May ? 01:47:05 22° S 01:49:46 46° ESE 01:54:21 10° NE visible
12 May ? 00:27:02 13° ESE 00:28:02 13° ESE 00:30:17 10° E visible
12 May ? 02:04:10 22° SW 02:07:15 85° SE 02:12:04 10° NE visible
13 May ? 00:44:04 23° SE 00:45:13 25° ESE 00:49:07 10° ENE visible
13 May ? 02:21:12 16° WSW 02:24:53 55° NW 02:29:37 10° NNE visible
14 May ? 01:01:04 35° SSE 01:02:32 47° ESE 01:07:08 10° NE visible
14 May ? 02:38:21 10° WSW 02:42:39 34° NW 02:47:03 10° NNE visible
14 May ? 23:40:52 14° ESE 23:40:52 14° ESE 23:43:08 10° E visible
15 May ? 01:18:00 35° SW 01:20:00 87° SE 01:24:50 10° NE visible
15 May ? 02:56:47 10° W 03:00:35 23° NNW 03:04:26 10° NNE visible
15 May ? 23:57:46 26° ESE 23:57:58 26° ESE 00:01:54 10° ENE visible
16 May ? 01:34:54 23° WSW 01:37:38 54° NW 01:42:22 10° NNE visible
17 May ? 00:14:37 45° SSE 00:15:17 48° ESE 00:19:54 10° NE visible
17 May ? 01:51:44 13° W 01:55:25 33° NW 01:59:48 10° NNE visible
17 May ? 22:54:18 14° E 22:54:18 14° E 22:55:57 10° ENE visible
18 May ? 00:31:25 48° SW 00:32:45 88° SE 00:37:35 10° NE visible
18 May ? 02:09:34 10° W 02:13:21 23° NNW 02:17:11 10° NNE visible
18 May ? 23:11:03 26° ESE 23:11:03 26° ESE 23:14:40 10° ENE visible
19 May ? 00:48:09 28° WSW 00:50:23 53° NW 00:55:07 10° NNE visible
19 May ? 02:28:18 10° WNW 02:31:24 17° NNW 02:34:31 10° NNE visible
19 May ? 23:27:44 48° SE 23:28:00 49° ESE 23:32:38 10° NE visible
